Regional Weather Roundup
Issued by NWS Jackson, KY

Home | Current Version | Previous Version | Text Only | Print | Product List | Glossary Off
Versions: 1 2 3 4 5 6 7 8 9 10 11 12 13 14 15 16 17 18 19 20 21 22 23 24 25 26 27 28 29 30 31 32 33 34 35 36 37 38 39 40 41 42 43 44 45 46 47 48 49 50

000
ASUS43 KJKL 030710
RWRJKL

EAST KENTUCKY HOURLY WEATHER ROUNDUP
NATIONAL WEATHER SERVICE JACKSON KY
300 AM EDT WED SEP 03 2014

NOTE: "FAIR" INDICATES FEW OR NO CLOUDS BELOW 12,000 FEET WITH
NO SIGNIFICANT WEATHER AND/OR OBSTRUCTIONS TO VISIBILITY.

* THESE REPORTS ARE NOT UNDER NWS QUALITY CONTROL AND MAY NOT
  REPORT WEATHER SUCH AS PRECIPITATION AND FOG.

KYZ079-080-083-085-087-088-110-112-115-119-120-030800
...EASTERN KENTUCKY...

CITY           SKY/WX    TMP DP  RH WIND       PRES   REMARKS
JACKSON        MOCLDY    68  67  96 CALM      30.05S FOG
LONDON         CLOUDY    70  67  90 CALM      30.06S
SOMERSET*      MOCLDY    68  68 100 CALM      30.05F
MONTICELLO*    MOCLDY    70  69  96 CALM      30.05F
MIDDLESBORO*   MOCLDY    70  68  96 CALM      30.07F
HARLAN APT*    PTSUNNY   68  68 100 MISG      30.08F
HAZARD APT*    PTSUNNY   70  70 100 SW3       30.06
BLACK MTN*       N/A    N/A N/A N/A S7          N/A
PIKEVILLE APT* CLEAR     68  66  94 S5        30.05F
BIG SANDY*     PTSUNNY   69  68  98 SW3       30.04S
MOREHEAD APT*  CLOUDY    70  68  94 SW5       30.05S FOG
$$

KYZ035-036-041-042-044-050-067-078-099-030800
...CENTRAL KENTUCKY...

CITY           SKY/WX    TMP DP  RH WIND       PRES   REMARKS
MT STERLING*   FOG       68  68 100 CALM      30.05R VSB 1/2
FLEMING/MASON* FOG       68  68 100 CALM      30.04R VSB 0
DANVILLE*      CLOUDY    70  70 100 S3        30.05R
RICHMOND*      MOCLDY    70  66  88 S3        30.03S
LEXINGTON      CLOUDY    71  68  90 CALM      30.03S FOG
FRANKFORT      MOCLDY    67  66  97 CALM      30.02S
$$

KYZ091>093-OHZ055-061-077-WVZ005-015-034-035-042-030800
...SOUTHERN OHIO/WEST VIRGINIA...

CITY           SKY/WX    TMP DP  RH WIND       PRES   REMARKS
COVINGTON      FOG       67  65  93 CALM      30.02S VSB 1/4
COLUMBUS       PTCLDY    68  64  87 CALM      30.00S
DAYTON         CLEAR     67  65  93 W6        30.02S
WILMINGTON     FOG       64  63  96 W3        30.02S VSB 1/4
HUNTINGTON     CLOUDY    69  69 100 SW6       30.01S
CHARLESTON     CLOUDY    69  69 100 CALM      30.02S FOG
PINEVILLE*     CLOUDY    69  69 100 MISG      30.12F
BECKLEY        MOCLDY    65  63  93 S5        30.10S
BLUEFIELD      CLOUDY    66  62  87 W6        30.13F
$$

VAZ002-007-008-TNZ017-027-036-066-071-030800
...SOUTHWEST VIRGINIA/EAST TENNESSEE...

CITY           SKY/WX    TMP DP  RH WIND       PRES   REMARKS
WISE*          CLOUDY    64  64 100 S5        30.14S
JONESVILLE*      N/A     68  68 100 CALM      30.10F
ABINGDON*      CLOUDY    67  67  99 CALM      30.11F
BRISTOL        LGT RAIN  68  65  90 CALM      30.08F
KNOXVILLE      CLOUDY    70  69  97 CALM      30.04F
OAK RIDGE      CLOUDY    72  70  93 CALM      30.06F
CROSSVILLE     MOCLDY    70  66  87 S5        30.09F
NASHVILLE      CLOUDY    73  71  93 S3        30.00F
$$

...KEY TO REMARKS...
VSB - VISIBILITY IN MILES
WCI - WIND CHILL INDEX
HX  - HEAT INDEX

$$



USA.gov is the U.S. government's official web portal to all federal, state and local government web resources and services.